STARLINK-3175, 51140

Orbit data source: Space-Track

STARLINK-3175, 51140 is a payload satellite owned by SpaceX/Seattle (US) in LEO that was launched on Wed, 19 Jan 2022 UTC via an FALCON 9 launch vehicle from the Air Force Eastern Test Range (AFETR). Payload-class satellites include a variety of spacecraft equipped with specific instruments for various scientific and technological missions. These include communications satellites like Starlink; space stations such as the ISS; scientific satellites like the Hubble; Earth observation satellites from companies like Planet Labs, Umbra, and HawkEye 360; GPS; miniature CubeSats for education and research; and military/defense satellites.

Loading next visibility...
Identifier
51140, 2022-005AN
Orbit
LEO
Country
Flag of USUS
Related business
Manufacturer
SpaceX/Seattle
Mission
Operational Commercial Communications
Bus & Motor
STARLINK, Unknown motor
Mass
297 kg wet, ~275 kg dry
Launch date (UTC)
2022-01-19 (4 years ago)
Launch vehicle
FALCON 9
Launch site
Air Force Eastern Test Range (AFETR)
Object type
Payload
Rocket body
Debris
Shape & HBR
Box + 1 Pan, 10.1 m
Radar Cross Section
13.562 m², Large (>1 m²)

Expand to show TLE details & history
Last TLE update: 1 day ago

TLE from 1 day ago
0 STARLINK-3175
1 51140U 22005AN  26093.69366407  .00002795  00000-0  19357-3 0  9992
2 51140  53.2165 186.8820 0001419  95.0049 265.1105 15.08849364232511
Epoch: 2026-04-03T16:38Z
TLE epoch observation values (Epoch: 2026-04-03T16:38:52.575Z)
Latitude
-0.00005°
Longitude
105.13878°
Altitude
540.696 km
Speed
7.593 km/s
True Right ascension
12h 27m 31s
True Declination
0° 00' 00"
Sunlit
Object was in full shadow at epoch
Visualization orbit readout
Latitude
Unknown
Longitude
Unknown
Altitude
Unknown
Speed
Unknown
Apparent Right ascension
Unknown
Apparent Declination
Unknown
Sunlit
N/A
Visualization observer readout
Local Sidereal Time
22:28:57
Azimuth
Unknown
Elevation
Unknown
Doppler factor
Unknown
Orbital elements
Apogee altitude
540.942 km
Perigee altitude
538.978 km
Semi-major axis
6,918.097 km
Eccentricity
0.00014
Inclination
53.2165°
RAAN
186.882°
Arg. of periapsis
95.0049°
True anomaly
265.0943°
Mean anomaly
265.1105°
Eccentric anomaly
265.1024°
Mean motion
3.77193 °/min
Orbital period
95.44 mins
BSTAR
0.00019357
Loading maneuver chart data...
Computing Atmospheric mass density...
Loading historical data...
Loading historical data...
Loading historical data...
Loading historical data...
Loading historical data...
Loading historical data...
Loading historical data...

Documentation

Showing up to 5 results
|